Weather History for Fond du Lac, WI

Change the Weather History Date:

Sunday, January 5, 2014

  Actual Average Record
Temperature  
Mean Temperature 4 °F -  
Max Temperature 14 °F 24 °F 48 °F (2007)
Min Temperature -8 °F 6 °F -18 °F (1959)
Degree Days  
Heating Degree Days 61    
Moisture  
Dew Point -7 °F    
Average Humidity 60    
Maximum Humidity 69    
Minimum Humidity 52    
Precipitation  
Precipitation 0.00 in - - ()
Sea Level Pressure  
Sea Level Pressure 30.15 in    
Wind  
Wind Speed 13 mph (NNW)    
Max Wind Speed 21 mph    
Max Gust Speed 31 mph    
Visibility 10 miles    
Events      
Averages and records for this station are not official NWS values.
T = Trace of Precipitation, MM = Missing Value Source: NWS Daily Summary

Daily Weather History Graph

Daily Weather History Graph

Search for Another Location

Airport:

Trip Planner

Search our weather history database for the weather conditions in past years. The results will help you decide how hot, cold, wet, or windy it might be!

Date:

Astronomy

Jan. 05, 2014 Rise Set
Actual Time 7:27 AM CST 4:31 PM CST
Civil Twilight 6:55 AM CST 5:03 PM CST
Nautical Twilight 6:19 AM CST 5:39 PM CST
Astronomical Twilight 5:44 AM CST 6:14 PM CST
Moon 9:58 AM CST (1/5) 10:10 PM CST (1/5)
Length of Visible Light 10h 08m
Length of Day
9h 03m
Waxing Crescent, 25% of the Moon is Illuminated
Jan 5
Waxing Crescent
Jan 7
First Quarter
Jan 15
Full
Jan 23
Last Quarter
Jan 30
New

Hourly Weather History & Observations

Time (CST) Temp. Windchill Dew Point Humidity Pressure Visibility Wind Dir Wind Speed Gust Speed Precip Events Conditions
12:53 AM 14.0 °F 0.5 °F 3.9 °F 64% 30.14 in 10.0 mi NNW 11.5 mph - N/A   Clear
1:53 AM 12.9 °F -0.2 °F 3.0 °F 65% 30.15 in 10.0 mi North 10.4 mph - N/A   Clear
2:53 AM 12.0 °F -2.7 °F 1.0 °F 61% 30.17 in 10.0 mi North 12.7 mph - N/A   Clear
3:53 AM 10.9 °F -2.6 °F -0.0 °F 61% 30.17 in 10.0 mi North 10.4 mph - N/A   Clear
4:53 AM 10.0 °F -4.5 °F 1.0 °F 67% 30.16 in 10.0 mi NNW 11.5 mph - N/A   Partly Cloudy
5:53 AM 8.1 °F -8.4 °F -0.9 °F 67% 30.17 in 10.0 mi NNW 13.8 mph - N/A   Partly Cloudy
6:53 AM 7.0 °F -8.3 °F -2.0 °F 67% 30.18 in 10.0 mi NNW 11.5 mph - N/A   Scattered Clouds
7:53 AM 6.1 °F -7.8 °F -2.0 °F 69% 30.20 in 10.0 mi NNW 9.2 mph - N/A   Overcast
8:53 AM 6.1 °F -9.5 °F -4.0 °F 63% 30.22 in 10.0 mi NNW 11.5 mph - N/A   Overcast
9:53 AM 5.0 °F -12.3 °F -4.0 °F 66% 30.21 in 10.0 mi NNW 13.8 mph - N/A   Overcast
10:53 AM 5.0 °F -11.6 °F -6.0 °F 61% 30.21 in 10.0 mi North 12.7 mph - N/A   Overcast
11:53 AM 5.0 °F -12.3 °F -7.1 °F 58% 30.17 in 10.0 mi NNW 13.8 mph - N/A   Overcast
12:53 PM 5.0 °F -12.3 °F -7.1 °F 58% 30.15 in 10.0 mi NNW 13.8 mph - N/A   Overcast
1:53 PM 3.9 °F -13.7 °F -8.0 °F 58% 30.14 in 10.0 mi NNW 13.8 mph - N/A   Overcast
2:53 PM 3.0 °F -14.1 °F -9.0 °F 57% 30.14 in 10.0 mi NNW 12.7 mph - N/A   Overcast
3:53 PM 3.0 °F -15.5 °F -9.9 °F 55% 30.14 in 10.0 mi NW 15.0 mph - N/A   Overcast
4:53 PM 1.9 °F -18.7 °F -11.9 °F 52% 30.14 in 10.0 mi NW 18.4 mph - N/A   Overcast
5:53 PM -0.0 °F -19.4 °F -11.9 °F 57% 30.13 in 10.0 mi NW 15.0 mph - N/A   Mostly Cloudy
6:53 PM -2.0 °F -23.9 °F -14.1 °F 57% 30.14 in 10.0 mi NW 18.4 mph - N/A   Overcast
7:53 PM -2.9 °F -23.8 °F -15.0 °F 56% 30.13 in 10.0 mi NW 16.1 mph - N/A   Overcast
8:53 PM -4.0 °F -25.2 °F -16.1 °F 56% 30.12 in 10.0 mi NW 16.1 mph - N/A   Mostly Cloudy
9:53 PM -4.0 °F -27.0 °F -17.0 °F 54% 30.10 in 10.0 mi WNW 19.6 mph 25.3 mph N/A   Overcast
10:53 PM -6.0 °F -29.6 °F -18.0 °F 56% 30.09 in 10.0 mi NW 19.6 mph 26.5 mph N/A   Clear
11:53 PM -8.0 °F -32.8 °F -18.0 °F 61% 30.07 in 10.0 mi NW 20.7 mph 31.1 mph N/A   Overcast